RYR1JC LGKO-EGSS

Flight info

Callsign RYR1JC
Flight time N/A
Altitude 36000
Route LARKI UL609 MES DCT KOROS DCT DISOR DCT LONTA UL608 DOLEV DCT ABTAN/N0446F380 DCT SIMBA DCT MAMOR DCT INBED DCT BOMBI DCT ADKUV DCT SOGRI DCT HELEN DCT KOZUF DCT IMPOH DCT SASKI L608 SUMUM Y6 TOSVA
Aircraft B738/M-SDE3FGILRWY/SB1

Departure

Time 2026-05-08 16:00
Airport Kos International Airport "Ippokratis" (LGKO)

Arrival

Time N/A
Airport London Stansted Airport (EGSS)
Time Latitude Longitude Altitude Speed Heading
2026-05-08 15:42 36.80147 27.08929 418 ft 0 kts 58°
2026-05-08 15:54 36.80141 27.08918 418 ft 3 kts 58°
2026-05-08 15:54 36.80130 27.08896 408 ft 3 kts 58°
2026-05-08 15:55 36.80122 27.08879 409 ft 3 kts 56°
2026-05-08 15:55 36.80093 27.08861 414 ft 3 kts 335°
2026-05-08 15:55 36.80079 27.08870 411 ft 1 kts 328°
2026-05-08 15:56 36.80075 27.08873 410 ft 0 kts 328°
2026-05-08 15:58 36.80082 27.08868 412 ft 4 kts 328°
2026-05-08 15:58 36.80126 27.08833 414 ft 10 kts 328°
2026-05-08 15:58 36.80192 27.08782 414 ft 12 kts 328°
2026-05-08 15:58 36.80263 27.08726 411 ft 12 kts 328°
2026-05-08 15:59 36.80322 27.08661 420 ft 11 kts 300°
2026-05-08 15:59 36.80347 27.08561 420 ft 13 kts 285°
2026-05-08 15:59 36.80364 27.08444 411 ft 12 kts 277°
2026-05-08 15:59 36.80345 27.08424 409 ft 4 kts 149°
2026-05-08 16:00 36.80328 27.08437 419 ft 5 kts 148°
2026-05-08 16:00 36.80061 27.08645 414 ft 87 kts 148°
2026-05-08 16:00 36.79327 27.09217 417 ft 159 kts 148°
2026-05-08 16:00 36.78334 27.09992 1119 ft 169 kts 149°
2026-05-08 16:01 36.77328 27.10791 2012 ft 176 kts 147°
2026-05-08 16:01 36.76257 27.11670 2610 ft 192 kts 147°
2026-05-08 16:01 36.75174 27.12682 3314 ft 200 kts 131°
2026-05-08 16:01 36.74510 27.14250 3796 ft 216 kts 102°
2026-05-08 16:02 36.74619 27.16169 4224 ft 233 kts 68°
2026-05-08 16:02 36.75373 27.18003 4875 ft 240 kts 62°
2026-05-08 16:02 36.76412 27.19709 5264 ft 263 kts 35°
2026-05-08 16:02 36.78169 27.20475 5671 ft 277 kts 358°
2026-05-08 16:03 36.80011 27.19870 6435 ft 275 kts 330°
2026-05-08 16:03 36.81706 27.18772 7315 ft 274 kts 329°
2026-05-08 16:03 36.83397 27.17677 8286 ft 272 kts 329°
2026-05-08 16:03 36.85082 27.16597 9194 ft 273 kts 329°
2026-05-08 16:04 36.86778 27.15529 10064 ft 274 kts 329°
2026-05-08 16:04 36.88509 27.14456 10639 ft 286 kts 329°
2026-05-08 16:04 36.89750 27.13692 10744 ft 303 kts 330°
2026-05-08 16:04 36.91687 27.12512 10928 ft 325 kts 330°
2026-05-08 16:05 36.93797 27.11242 11389 ft 337 kts 330°
2026-05-08 16:05 36.95900 27.09990 12064 ft 341 kts 331°
2026-05-08 16:05 36.98048 27.08717 12818 ft 342 kts 331°
2026-05-08 16:05 37.00236 27.07422 13571 ft 345 kts 331°
2026-05-08 16:06 37.02382 27.06151 14232 ft 348 kts 331°
2026-05-08 16:06 37.04590 27.04843 14809 ft 353 kts 331°
2026-05-08 16:06 37.06814 27.03524 15453 ft 355 kts 331°
2026-05-08 16:06 37.09056 27.02194 16101 ft 358 kts 331°
2026-05-08 16:07 37.11317 27.00851 16718 ft 361 kts 331°
2026-05-08 16:07 37.13595 26.99498 17323 ft 364 kts 331°
2026-05-08 16:07 37.15897 26.98129 17916 ft 368 kts 331°
2026-05-08 16:07 37.18219 26.96747 18490 ft 371 kts 331°
2026-05-08 16:08 37.20558 26.95355 19012 ft 373 kts 331°
2026-05-08 16:08 37.22911 26.93953 19548 ft 375 kts 331°
2026-05-08 16:08 37.25277 26.92542 20070 ft 378 kts 331°
2026-05-08 16:08 37.27658 26.91122 20625 ft 380 kts 331°
2026-05-08 16:09 37.30048 26.89695 21173 ft 381 kts 331°
2026-05-08 16:09 37.32450 26.88259 21676 ft 384 kts 330°
2026-05-08 16:09 37.34873 26.86810 22163 ft 387 kts 330°
2026-05-08 16:09 37.37315 26.85346 22545 ft 392 kts 330°
2026-05-08 16:10 37.39741 26.83762 22943 ft 393 kts 324°
2026-05-08 16:10 37.41933 26.81736 23525 ft 387 kts 316°
2026-05-08 16:10 37.43925 26.79556 24483 ft 373 kts 315°
2026-05-08 16:10 37.45864 26.77440 25196 ft 368 kts 315°
2026-05-08 16:11 37.47807 26.75321 25598 ft 371 kts 315°
2026-05-08 16:11 37.49772 26.73186 25931 ft 375 kts 315°
2026-05-08 16:11 37.51758 26.71033 26319 ft 378 kts 315°
2026-05-08 16:11 37.53755 26.68874 26797 ft 378 kts 315°
2026-05-08 16:12 37.55743 26.66725 27359 ft 375 kts 315°
2026-05-08 16:12 37.57714 26.64596 27956 ft 372 kts 315°
2026-05-08 16:12 37.59671 26.62479 28493 ft 370 kts 315°
2026-05-08 16:12 37.61622 26.60365 28993 ft 369 kts 315°
2026-05-08 16:13 37.63567 26.58256 29512 ft 368 kts 315°
2026-05-08 16:13 37.65501 26.56159 30053 ft 366 kts 315°
2026-05-08 16:13 37.67428 26.54069 30459 ft 365 kts 314°
2026-05-08 16:13 37.69354 26.51976 30820 ft 365 kts 314°
2026-05-08 16:14 37.71277 26.49879 31185 ft 366 kts 314°
2026-05-08 16:14 37.73223 26.47750 31219 ft 375 kts 314°
2026-05-08 16:14 37.77215 26.43379 31362 ft 390 kts 314°
2026-05-08 16:15 37.81416 26.38780 31493 ft 404 kts 314°
2026-05-08 16:15 37.83553 26.36440 31598 ft 409 kts 314°
2026-05-08 16:15 37.85687 26.34102 31794 ft 412 kts 314°
2026-05-08 16:16 37.87854 26.31728 32092 ft 412 kts 314°
2026-05-08 16:16 37.90014 26.29365 32479 ft 410 kts 314°
2026-05-08 16:16 37.92166 26.27011 32863 ft 408 kts 314°
2026-05-08 16:16 37.94308 26.24664 33184 ft 407 kts 313°
2026-05-08 16:17 37.96449 26.22316 33466 ft 407 kts 313°
2026-05-08 16:17 37.98591 26.19964 33783 ft 406 kts 313°
2026-05-08 16:17 38.00722 26.17621 34120 ft 405 kts 313°
2026-05-08 16:17 38.02851 26.15281 34383 ft 405 kts 313°
2026-05-08 16:18 38.04976 26.12942 34587 ft 405 kts 313°
2026-05-08 16:18 38.07103 26.10599 34827 ft 405 kts 313°
2026-05-08 16:18 38.09226 26.08261 35078 ft 404 kts 313°
2026-05-08 16:18 38.11348 26.05922 35315 ft 404 kts 313°
2026-05-08 16:19 38.13469 26.03582 35559 ft 404 kts 313°
2026-05-08 16:19 38.15590 26.01240 35773 ft 404 kts 313°
2026-05-08 16:19 38.17707 25.98900 35995 ft 403 kts 313°
2026-05-08 16:19 38.19829 25.96552 36072 ft 406 kts 313°
2026-05-08 16:20 38.24092 25.91832 36076 ft 406 kts 313°
2026-05-08 16:20 38.28298 25.87098 36075 ft 401 kts 311°
2026-05-08 16:21 38.32419 25.82342 36074 ft 398 kts 311°
2026-05-08 16:21 38.36505 25.77614 36079 ft 396 kts 311°
2026-05-08 16:22 38.40580 25.72901 36086 ft 396 kts 311°
2026-05-08 16:22 38.44697 25.68134 36088 ft 404 kts 311°
2026-05-08 16:23 38.48886 25.63279 36088 ft 409 kts 311°
2026-05-08 16:23 38.53106 25.58388 36076 ft 411 kts 311°
2026-05-08 16:24 38.57340 25.53472 36069 ft 412 kts 311°
2026-05-08 16:24 38.61573 25.48549 36065 ft 411 kts 311°
2026-05-08 16:25 38.65796 25.43628 36063 ft 410 kts 311°
2026-05-08 16:25 38.70006 25.38714 36088 ft 409 kts 311°
2026-05-08 16:26 38.74201 25.33808 36071 ft 408 kts 311°
2026-05-08 16:26 38.78390 25.28901 36069 ft 408 kts 311°
2026-05-08 16:27 38.82569 25.23997 36059 ft 407 kts 311°
2026-05-08 16:27 38.86735 25.19100 36060 ft 406 kts 311°
2026-05-08 16:28 38.90900 25.14197 36055 ft 406 kts 311°
2026-05-08 16:28 38.95057 25.09295 36056 ft 406 kts 311°
2026-05-08 16:29 38.99218 25.04378 36069 ft 407 kts 311°
2026-05-08 16:29 39.03359 24.99478 36077 ft 408 kts 310°
2026-05-08 16:30 39.07544 24.94518 36060 ft 409 kts 310°
2026-05-08 16:30 39.11842 24.89667 36052 ft 414 kts 315°
2026-05-08 16:31 39.16468 24.85199 36058 ft 417 kts 316°
2026-05-08 16:31 39.21142 24.80768 36051 ft 417 kts 316°
2026-05-08 16:32 39.25797 24.76304 36066 ft 417 kts 316°
2026-05-08 16:32 39.30441 24.71807 36052 ft 417 kts 316°
2026-05-08 16:33 39.35077 24.67296 36048 ft 417 kts 316°
2026-05-08 16:33 39.39713 24.62775 36043 ft 417 kts 316°
2026-05-08 16:34 39.44344 24.58253 36047 ft 417 kts 316°
2026-05-08 16:34 39.48971 24.53726 36045 ft 417 kts 316°
2026-05-08 16:35 39.53593 24.49197 36051 ft 417 kts 316°
2026-05-08 16:35 39.58218 24.44657 36044 ft 417 kts 316°
2026-05-08 16:36 39.62848 24.40105 36055 ft 418 kts 316°
2026-05-08 16:36 39.67483 24.35539 36054 ft 419 kts 316°
2026-05-08 16:37 39.72135 24.30949 36057 ft 420 kts 316°
2026-05-08 16:37 39.76790 24.26348 36054 ft 421 kts 316°
2026-05-08 16:38 39.81458 24.21726 36054 ft 422 kts 316°
2026-05-08 16:38 39.86139 24.17083 36060 ft 423 kts 316°
2026-05-08 16:39 39.90828 24.12424 36055 ft 424 kts 316°
2026-05-08 16:39 39.95528 24.07747 36061 ft 425 kts 316°
2026-05-08 16:40 40.00228 24.03060 36059 ft 426 kts 316°
2026-05-08 16:40 40.04910 23.98383 36059 ft 427 kts 316°
2026-05-08 16:41 40.09628 23.93662 36072 ft 428 kts 317°
2026-05-08 16:42 40.16715 23.86555 36071 ft 429 kts 317°
2026-05-08 16:42 40.21452 23.81793 36074 ft 430 kts 317°
2026-05-08 16:43 40.26203 23.77009 36065 ft 431 kts 317°
2026-05-08 16:43 40.30961 23.72209 36068 ft 432 kts 318°
2026-05-08 16:44 40.35725 23.67394 36061 ft 433 kts 318°
2026-05-08 16:44 40.40495 23.62565 36070 ft 433 kts 318°
2026-05-08 16:45 40.45270 23.57720 36062 ft 434 kts 318°
2026-05-08 16:45 40.50038 23.52875 36072 ft 433 kts 317°
2026-05-08 16:46 40.54798 23.48029 36064 ft 433 kts 317°
2026-05-08 16:46 40.59555 23.43177 36077 ft 433 kts 319°
2026-05-08 16:47 40.64307 23.38321 36074 ft 432 kts 319°
2026-05-08 16:47 40.69054 23.33460 36069 ft 432 kts 319°
2026-05-08 16:48 40.73790 23.28603 36074 ft 431 kts 319°
2026-05-08 16:48 40.78517 23.23744 36076 ft 431 kts 319°
2026-05-08 16:49 40.82442 23.19705 36068 ft 431 kts 319°
2026-05-08 16:49 40.87942 23.14031 36081 ft 432 kts 319°
2026-05-08 16:50 40.92682 23.09133 36067 ft 433 kts 320°
2026-05-08 16:50 40.96659 23.05017 36068 ft 433 kts 320°
2026-05-08 16:51 41.01401 23.00100 36077 ft 433 kts 319°
2026-05-08 16:51 41.06142 22.95174 36068 ft 433 kts 319°
2026-05-08 16:52 41.10876 22.90246 36077 ft 433 kts 320°
2026-05-08 16:52 41.15618 22.85300 36069 ft 434 kts 320°
2026-05-08 16:53 41.22738 22.77858 36061 ft 435 kts 320°
2026-05-08 16:53 41.27154 22.72491 36076 ft 432 kts 310°
2026-05-08 16:54 41.31167 22.66538 36061 ft 433 kts 309°
2026-05-08 16:54 41.35164 22.60559 36078 ft 432 kts 310°
2026-05-08 16:55 41.39184 22.54608 36057 ft 432 kts 310°
2026-05-08 16:55 41.43214 22.48675 36061 ft 431 kts 310°
2026-05-08 16:56 41.47239 22.42746 36068 ft 431 kts 310°
2026-05-08 16:56 41.51264 22.36805 36051 ft 431 kts 310°
2026-05-08 16:57 41.55277 22.30870 36049 ft 430 kts 310°
2026-05-08 16:57 41.59284 22.24930 36047 ft 430 kts 310°
2026-05-08 16:58 41.63281 22.18993 36046 ft 430 kts 310°
2026-05-08 16:58 41.67277 22.13045 36043 ft 430 kts 310°
2026-05-08 16:59 41.71275 22.07084 36050 ft 431 kts 310°
2026-05-08 16:59 41.75278 22.01102 36044 ft 431 kts 310°
2026-05-08 17:00 41.79282 21.95108 36036 ft 432 kts 310°
2026-05-08 17:00 41.83292 21.89090 36036 ft 433 kts 310°
2026-05-08 17:01 41.87306 21.83056 36028 ft 434 kts 310°
2026-05-08 17:01 41.91319 21.77010 36028 ft 434 kts 310°
2026-05-08 17:02 41.95312 21.70982 36023 ft 435 kts 310°
2026-05-08 17:02 41.99330 21.64903 36024 ft 435 kts 310°
2026-05-08 17:03 42.03347 21.58815 36023 ft 435 kts 310°
2026-05-08 17:03 42.07361 21.52717 36040 ft 435 kts 310°
2026-05-08 17:04 42.11370 21.46614 36040 ft 435 kts 310°
2026-05-08 17:04 42.15378 21.40502 36042 ft 435 kts 310°
2026-05-08 17:05 42.19336 21.34337 36056 ft 435 kts 309°
2026-05-08 17:05 42.23247 21.28112 36046 ft 435 kts 309°
2026-05-08 17:06 42.27155 21.21883 36045 ft 435 kts 309°
2026-05-08 17:06 42.31060 21.15663 36044 ft 433 kts 309°
2026-05-08 17:07 42.34946 21.09466 36050 ft 431 kts 308°
2026-05-08 17:07 42.38808 21.03298 36045 ft 428 kts 308°
2026-05-08 17:08 42.42645 20.97156 36045 ft 426 kts 308°
2026-05-08 17:08 42.46460 20.91034 36047 ft 424 kts 308°
2026-05-08 17:09 42.50262 20.84923 36046 ft 423 kts 308°
2026-05-08 17:09 42.54052 20.78816 36055 ft 423 kts 308°
2026-05-08 17:10 42.57838 20.72704 36047 ft 424 kts 308°
2026-05-08 17:10 42.61631 20.66568 36046 ft 424 kts 308°
2026-05-08 17:11 42.65398 20.60463 36044 ft 425 kts 308°
2026-05-08 17:11 42.69200 20.54286 36045 ft 427 kts 308°
2026-05-08 17:12 42.73009 20.48084 36041 ft 428 kts 308°
2026-05-08 17:12 42.76826 20.41857 36044 ft 429 kts 308°
2026-05-08 17:13 42.80652 20.35605 36040 ft 430 kts 308°
2026-05-08 17:13 42.84588 20.29460 36036 ft 432 kts 315°
2026-05-08 17:14 42.89053 20.23953 36032 ft 433 kts 317°
2026-05-08 17:14 42.93589 20.18535 36031 ft 433 kts 317°
2026-05-08 17:15 42.98070 20.13115 36029 ft 433 kts 316°
2026-05-08 17:15 43.02548 20.07631 36025 ft 432 kts 316°
2026-05-08 17:16 43.07008 20.02133 36020 ft 431 kts 316°
2026-05-08 17:16 43.11460 19.96631 36023 ft 431 kts 316°
2026-05-08 17:17 43.15901 19.91132 36016 ft 430 kts 316°
2026-05-08 17:17 43.20329 19.85639 36018 ft 429 kts 316°
2026-05-08 17:18 43.24755 19.80137 36015 ft 429 kts 316°
2026-05-08 17:18 43.29174 19.74634 36018 ft 429 kts 315°
2026-05-08 17:19 43.33590 19.69121 36004 ft 429 kts 315°
2026-05-08 17:19 43.37996 19.63612 36015 ft 428 kts 315°
2026-05-08 17:20 43.42395 19.58098 36011 ft 427 kts 315°
2026-05-08 17:20 43.46779 19.52594 36024 ft 427 kts 315°
2026-05-08 17:21 43.51165 19.47073 36016 ft 428 kts 315°
2026-05-08 17:21 43.55561 19.41529 35999 ft 429 kts 315°
2026-05-08 17:22 43.59961 19.35969 36009 ft 429 kts 315°
2026-05-08 17:22 43.64360 19.30401 36013 ft 429 kts 315°
2026-05-08 17:23 43.68762 19.24814 36008 ft 431 kts 315°
2026-05-08 17:23 43.73147 19.19237 36017 ft 432 kts 315°
2026-05-08 17:24 43.77582 19.13587 36024 ft 434 kts 315°
2026-05-08 17:24 43.82026 19.07912 36001 ft 435 kts 314°
2026-05-08 17:25 43.86475 19.02220 36007 ft 436 kts 314°
2026-05-08 17:25 43.90924 18.96516 36009 ft 435 kts 314°
2026-05-08 17:26 43.95365 18.90809 36012 ft 435 kts 314°
2026-05-08 17:26 43.99795 18.85104 36010 ft 434 kts 314°
2026-05-08 17:27 44.04210 18.79407 36021 ft 433 kts 314°
2026-05-08 17:27 44.08615 18.73710 36015 ft 432 kts 314°
2026-05-08 17:28 44.13003 18.68022 36005 ft 431 kts 314°
2026-05-08 17:28 44.17379 18.62340 36021 ft 430 kts 314°
2026-05-08 17:29 44.21741 18.56661 36019 ft 429 kts 314°
2026-05-08 17:29 44.26098 18.50979 36023 ft 429 kts 314°
2026-05-08 17:30 44.30450 18.45289 36023 ft 429 kts 314°
2026-05-08 17:30 44.34772 18.39627 36023 ft 429 kts 314°
2026-05-08 17:31 44.39125 18.33914 36019 ft 429 kts 314°
2026-05-08 17:31 44.43475 18.28190 36028 ft 430 kts 313°
2026-05-08 17:32 44.47834 18.22445 36016 ft 431 kts 313°
2026-05-08 17:32 44.52188 18.16691 36029 ft 431 kts 313°
2026-05-08 17:33 44.56548 18.10919 36021 ft 431 kts 313°
2026-05-08 17:33 44.60901 18.05143 36020 ft 431 kts 313°
2026-05-08 17:34 44.65259 17.99347 36024 ft 432 kts 313°
2026-05-08 17:34 44.69617 17.93539 36022 ft 432 kts 313°
2026-05-08 17:35 44.73973 17.87722 36019 ft 432 kts 313°
2026-05-08 17:35 44.78326 17.81895 36023 ft 432 kts 313°
2026-05-08 17:36 44.82681 17.76053 36016 ft 432 kts 313°
2026-05-08 17:36 44.87031 17.70206 36022 ft 432 kts 312°
2026-05-08 17:37 44.91377 17.64349 36023 ft 432 kts 312°
2026-05-08 17:37 44.95713 17.58494 36022 ft 432 kts 312°
2026-05-08 17:38 44.99320 17.53615 36024 ft 432 kts 312°
2026-05-08 17:38 45.03650 17.47743 36042 ft 431 kts 312°
2026-05-08 17:39 45.07981 17.41858 36020 ft 432 kts 312°
2026-05-08 17:39 45.12302 17.35974 36026 ft 431 kts 312°
2026-05-08 17:40 45.16623 17.30076 36025 ft 431 kts 312°
2026-05-08 17:40 45.20934 17.24179 36027 ft 431 kts 312°
2026-05-08 17:41 45.25243 17.18272 36032 ft 431 kts 312°
2026-05-08 17:41 45.29551 17.12353 36036 ft 431 kts 311°
2026-05-08 17:42 45.33856 17.06425 36028 ft 431 kts 311°
2026-05-08 17:42 45.38157 17.00489 36024 ft 431 kts 311°
2026-05-08 17:43 45.42453 16.94547 36025 ft 430 kts 311°
2026-05-08 17:43 45.46718 16.88634 36032 ft 431 kts 311°
2026-05-08 17:44 45.51033 16.82639 36024 ft 431 kts 311°
2026-05-08 17:44 45.55294 16.76705 36028 ft 431 kts 311°
2026-05-08 17:45 45.59578 16.70726 36029 ft 431 kts 311°
2026-05-08 17:45 45.63862 16.64733 36025 ft 431 kts 311°
2026-05-08 17:46 45.68146 16.58727 36028 ft 431 kts 311°
2026-05-08 17:46 45.72428 16.52711 36022 ft 431 kts 311°
2026-05-08 17:47 45.76704 16.46689 36022 ft 431 kts 311°
2026-05-08 17:47 45.80252 16.41682 36028 ft 431 kts 311°
2026-05-08 17:48 45.85240 16.34626 36036 ft 431 kts 311°
2026-05-08 17:48 45.89499 16.28586 36024 ft 430 kts 311°
2026-05-08 17:49 45.93750 16.22545 36028 ft 430 kts 311°
2026-05-08 17:49 45.97994 16.16499 36033 ft 429 kts 311°
2026-05-08 17:50 46.02235 16.10444 36030 ft 429 kts 311°
2026-05-08 17:50 46.06470 16.04383 36055 ft 429 kts 311°
2026-05-08 17:51 46.10701 15.98314 36038 ft 429 kts 311°
2026-05-08 17:51 46.14905 15.92271 36036 ft 429 kts 311°
2026-05-08 17:52 46.19126 15.86188 36037 ft 429 kts 311°
2026-05-08 17:53 46.25456 15.77042 36041 ft 429 kts 311°
2026-05-08 17:53 46.29668 15.70937 36038 ft 429 kts 310°
2026-05-08 17:54 46.33877 15.64824 36042 ft 429 kts 310°
2026-05-08 17:54 46.38078 15.58707 36042 ft 428 kts 310°
2026-05-08 17:55 46.42279 15.52577 36054 ft 428 kts 310°
2026-05-08 17:55 46.46473 15.46442 36048 ft 428 kts 310°
2026-05-08 17:56 46.50663 15.40299 36046 ft 429 kts 310°
2026-05-08 17:56 46.54856 15.34137 36049 ft 429 kts 310°
2026-05-08 17:57 46.59046 15.27965 36062 ft 429 kts 310°
2026-05-08 17:57 46.63239 15.21775 36054 ft 430 kts 310°
2026-05-08 17:58 46.67434 15.15565 36059 ft 430 kts 309°
2026-05-08 17:58 46.71616 15.09363 36078 ft 428 kts 309°
2026-05-08 17:59 46.75793 15.03152 36061 ft 430 kts 309°
2026-05-08 17:59 46.79950 14.96956 36041 ft 430 kts 309°
2026-05-08 18:00 46.84124 14.90721 36059 ft 429 kts 309°
2026-05-08 18:00 46.90375 14.81357 36073 ft 431 kts 309°
2026-05-08 18:01 46.94591 14.75014 36317 ft 437 kts 309°
2026-05-08 18:01 46.95914 14.73023 36494 ft 436 kts 309°
2026-05-08 18:01 46.98029 14.69838 36805 ft 435 kts 309°
2026-05-08 18:02 47.00137 14.66661 37054 ft 434 kts 310°
2026-05-08 18:02 47.01558 14.64516 37221 ft 434 kts 310°
2026-05-08 18:02 47.04333 14.60319 37567 ft 433 kts 310°
2026-05-08 18:02 47.06432 14.57141 37761 ft 433 kts 310°
2026-05-08 18:03 47.08521 14.53975 38020 ft 431 kts 310°
2026-05-08 18:03 47.10607 14.50810 38064 ft 433 kts 310°
2026-05-08 18:03 47.15016 14.44743 38073 ft 435 kts 315°
2026-05-08 18:04 47.19589 14.38922 38075 ft 434 kts 315°
2026-05-08 18:04 47.24146 14.33114 38076 ft 432 kts 315°
2026-05-08 18:05 47.28666 14.27283 38075 ft 431 kts 315°
2026-05-08 18:05 47.33164 14.21437 38094 ft 431 kts 315°
2026-05-08 18:06 47.37659 14.15575 38079 ft 432 kts 315°
2026-05-08 18:06 47.42154 14.09700 38070 ft 431 kts 315°
2026-05-08 18:07 47.46638 14.03825 38086 ft 431 kts 315°
2026-05-08 18:07 47.51128 13.97931 38081 ft 432 kts 315°
2026-05-08 18:08 47.55627 13.92010 38077 ft 433 kts 315°
2026-05-08 18:08 47.60131 13.86068 38092 ft 434 kts 314°
2026-05-08 18:09 47.64616 13.80137 38080 ft 435 kts 314°
2026-05-08 18:09 47.69137 13.74144 38080 ft 436 kts 314°
2026-05-08 18:10 47.73664 13.68129 38069 ft 437 kts 314°
2026-05-08 18:10 47.78193 13.62097 38066 ft 437 kts 314°
2026-05-08 18:11 47.82720 13.56052 38072 ft 438 kts 314°
2026-05-08 18:11 47.87249 13.49990 38055 ft 437 kts 314°
2026-05-08 18:12 47.91763 13.43933 38061 ft 436 kts 314°
2026-05-08 18:12 47.96259 13.37886 38053 ft 435 kts 314°
2026-05-08 18:13 48.00745 13.31837 38051 ft 434 kts 314°
2026-05-08 18:13 48.05221 13.25785 38065 ft 434 kts 314°
2026-05-08 18:14 48.09689 13.19730 38058 ft 434 kts 314°
2026-05-08 18:14 48.14157 13.13660 38054 ft 434 kts 314°
2026-05-08 18:15 48.18618 13.07586 38060 ft 433 kts 314°
2026-05-08 18:15 48.23076 13.01512 38061 ft 433 kts 315°
2026-05-08 18:16 48.27749 12.95758 38073 ft 435 kts 318°
2026-05-08 18:16 48.32522 12.90164 38064 ft 436 kts 318°
2026-05-08 18:17 48.37288 12.84529 38070 ft 436 kts 318°
2026-05-08 18:17 48.42034 12.78852 38054 ft 436 kts 317°
2026-05-08 18:18 48.46777 12.73145 38058 ft 436 kts 317°
2026-05-08 18:18 48.51519 12.67424 38066 ft 437 kts 317°
2026-05-08 18:19 48.56257 12.61694 38065 ft 437 kts 317°
2026-05-08 18:19 48.60996 12.55950 38067 ft 437 kts 317°
2026-05-08 18:20 48.65733 12.50193 38064 ft 437 kts 317°
2026-05-08 18:20 48.70474 12.44418 38083 ft 437 kts 317°
2026-05-08 18:21 48.75206 12.38639 38070 ft 437 kts 317°
2026-05-08 18:21 48.79903 12.32888 38074 ft 437 kts 317°
2026-05-08 18:22 48.84628 12.27090 38080 ft 437 kts 317°
2026-05-08 18:22 48.89052 12.20862 38090 ft 431 kts 306°
2026-05-08 18:23 48.92288 12.13283 38083 ft 427 kts 298°
2026-05-08 18:23 48.95324 12.05526 38083 ft 427 kts 298°
2026-05-08 18:24 48.98377 11.97775 38084 ft 427 kts 298°
2026-05-08 18:24 49.01442 11.90038 38080 ft 427 kts 298°
2026-05-08 18:25 49.04510 11.82298 38089 ft 427 kts 298°
2026-05-08 18:25 49.07576 11.74542 38086 ft 427 kts 298°
2026-05-08 18:26 49.10121 11.68086 38084 ft 428 kts 298°
2026-05-08 18:26 49.13181 11.60299 38086 ft 428 kts 298°
2026-05-08 18:27 49.15745 11.53760 38092 ft 429 kts 298°
2026-05-08 18:27 49.19299 11.44665 38092 ft 429 kts 298°
2026-05-08 18:28 49.22356 11.36819 38085 ft 430 kts 298°
2026-05-08 18:28 49.25411 11.28955 38088 ft 430 kts 298°
2026-05-08 18:29 49.28460 11.21081 38094 ft 430 kts 298°
2026-05-08 18:29 49.31504 11.13197 38103 ft 430 kts 298°
2026-05-08 18:30 49.34545 11.05297 38103 ft 430 kts 298°
2026-05-08 18:30 49.37577 10.97400 38101 ft 430 kts 298°
2026-05-08 18:31 49.40467 10.89382 38106 ft 428 kts 295°
2026-05-08 18:31 49.43105 10.81187 38098 ft 428 kts 294°
2026-05-08 18:32 49.45716 10.72973 38097 ft 428 kts 294°
2026-05-08 18:32 49.48344 10.64764 38099 ft 428 kts 294°
2026-05-08 18:33 49.50979 10.56557 38085 ft 428 kts 294°
2026-05-08 18:33 49.53613 10.48343 38086 ft 428 kts 294°
2026-05-08 18:34 49.56242 10.40119 38082 ft 428 kts 294°
2026-05-08 18:34 49.58864 10.31886 38088 ft 428 kts 294°
2026-05-08 18:35 49.61483 10.23634 38106 ft 429 kts 294°
2026-05-08 18:35 49.64083 10.15417 38103 ft 429 kts 294°
2026-05-08 18:36 49.66694 10.07135 38102 ft 429 kts 294°
2026-05-08 18:36 49.69300 9.98844 38099 ft 430 kts 294°
2026-05-08 18:37 49.71903 9.90535 38102 ft 430 kts 294°
2026-05-08 18:37 49.74501 9.82213 38102 ft 430 kts 294°
2026-05-08 18:38 49.77094 9.73878 38094 ft 430 kts 294°
2026-05-08 18:38 49.79682 9.65531 38110 ft 430 kts 294°
2026-05-08 18:39 49.82263 9.57177 38099 ft 430 kts 294°
2026-05-08 18:39 49.84839 9.48815 38100 ft 430 kts 294°
2026-05-08 18:40 49.87408 9.40446 38093 ft 430 kts 294°
2026-05-08 18:40 49.89971 9.32067 38095 ft 430 kts 294°
2026-05-08 18:41 49.92527 9.23679 38088 ft 430 kts 294°
2026-05-08 18:41 49.95074 9.15296 38088 ft 430 kts 294°
2026-05-08 18:42 49.97619 9.06890 38087 ft 430 kts 294°